{"data":{"norad_id":63122,"epoch":"2026-05-24T20:23:56.734944Z","epoch_age_seconds":84010,"freshness":"FRESH","line1":"1 63122U 25039U   26144.84996221  .00031169  00000+0  11361-2 0  9994","line2":"2 63122  43.0032 302.7447 0002885 272.9549  87.0972 15.27615965 69719","mean_motion":15.27615965,"eccentricity":0.0002885,"inclination_deg":43.0032,"raan_deg":302.7447,"arg_perigee_deg":272.9549,"mean_anomaly_deg":87.0972,"bstar":0.0011361,"rev_number":6971,"period_min":94.26452937077,"perigee_km":480.96198488404,"apogee_km":484.9208271243,"semimajor_km":6861.0784060042,"source":"CELESTRAK","updated_at":"2026-05-25T13:38:19.912731Z"}}